Simultaneous Nadir Overpasses (SNOs) Predictions

Prediction of SNOs between AQUA and NOAA-19 Satellite Orbit:

Table of predicted SNOs for the next 14.0 days since TLE Epoch: 10/7/2016
Index Date (AQUA) Time (AQUA) Lat,Lon (AQUA) SZA (AQUA ) Date (NOAA-19) Time (NOAA-19) Lat,Lon (NOAA-19) SZA (NOAA-19 ) Distance(km) Time Diff (sec)
1 10/09/2016 05:15:08 -80.92,-118.89 90.89 10/09/2016 05:14:38 -80.93,-118.96 90.87 1.44 30
2 10/09/2016 06:04:35 80.92, 48.77 89.12 10/09/2016 06:05:39 80.92, 48.64 89.11 2.31 64
3 10/11/2016 10:48:53 80.94, -22.52 89.97 10/11/2016 10:48:39 80.93, -22.66 89.98 2.51 14
4 10/13/2016 16:22:36 -80.93, 74.16 89.24 10/13/2016 16:22:35 -80.92, 74.32 89.25 2.87 1
5 10/15/2016 21:56:20 80.93, 170.70 91.58 10/15/2016 21:56:37 80.93, 170.54 91.59 2.94 17
6 10/18/2016 02:40:37 80.93, 99.57 92.38 10/18/2016 02:39:36 80.94, 99.46 92.42 2.04 61
7 10/18/2016 03:30:03 -80.93, -92.70 87.63 10/18/2016 03:30:32 -80.92, -92.56 87.65 2.40 29
8 10/20/2016 08:14:20 -80.93,-163.87 86.83 10/20/2016 08:13:31 -80.93,-163.85 86.82 0.38 49




NCC Satellite Simultaneous Nadir Overpasses (SNOs) Prediction Service
